period_start,C,m1,H,J0,J1,J2,J3,J4,J5,JA,JB,JC,JD,JJ,JK,JN,#
2018-08-07 00:02:47,0.00,0.07,0.00,23.42,26.88,29.68,13.95,42.98,1023.73,2030.01,3470.98,3068.01,3522.48,599.93,599.38,9.90,0000 0000 0000 0000 000000
2018-08-07 00:07:48,0.00,0.07,0.00,23.41,26.90,29.75,13.91,42.97,1023.75,2030.01,3470.88,3068.00,3522.07,599.81,599.16,9.95,0000 0000 0000 0000 000000
2018-08-07 00:12:49,0.01,0.07,0.00,23.41,26.90,29.72,14.00,42.98,1023.59,2030.00,3470.25,3068.00,3522.01,600.31,599.58,10.00,0000 0000 0000 0000 000000
2018-08-07 00:17:50,0.00,0.07,0.00,23.44,26.90,29.71,14.00,42.87,1023.63,2030.00,3470.04,3067.99,3522.00,600.06,599.26,10.05,0000 0000 0000 0000 000000
2018-08-07 00:22:51,-0.00,0.07,0.00,23.45,26.90,29.76,13.95,42.87,1023.53,2030.01,3470.00,3067.98,3521.99,599.96,599.18,10.10,0000 0000 0000 0000 000000
2018-08-07 00:27:52,0.00,0.07,0.00,23.45,26.90,29.76,13.91,42.89,1023.57,2030.00,3470.00,3067.96,3521.98,599.87,599.10,10.15,0000 0000 0000 0000 000000
2018-08-07 00:32:54,0.01,0.07,0.00,23.45,26.92,29.71,13.90,42.81,1023.50,2030.00,3469.95,3067.63,3521.80,599.81,598.98,10.20,0000 0000 0000 0000 000000
2018-08-07 00:37:56,0.04,0.07,0.00,23.47,26.92,29.68,13.91,42.78,1023.49,2030.00,3469.33,3067.11,3521.16,600.08,599.19,10.25,0000 0000 0000 0000 000000
2018-08-07 00:42:57,0.00,0.07,0.00,23.46,26.92,29.75,13.99,42.88,1023.47,2030.00,3469.04,3067.02,3521.01,600.13,599.18,10.30,0000 0000 0000 0000 000000
2018-08-07 00:47:58,0.00,0.07,0.00,23.47,26.92,29.73,13.95,42.89,1023.48,2030.00,3469.00,3067.00,3521.00,600.04,599.13,10.35,0000 0000 0000 0000 000000
2018-08-07 00:52:59,0.00,0.07,0.00,23.49,26.92,29.75,13.95,42.88,1023.48,2029.99,3468.98,3067.00,3520.99,600.02,599.13,10.40,0000 0000 0000 0000 000000
2018-08-07 00:58:01,0.02,0.07,0.00,23.50,26.94,29.75,13.93,42.89,1023.47,2029.99,3468.60,3066.82,3520.32,600.01,598.97,10.45,0000 0000 0000 0000 000000
2018-08-07 01:03:02,0.02,0.08,0.00,23.47,26.95,29.78,13.99,42.76,1023.47,2029.99,3468.11,3066.39,3520.07,600.04,599.13,10.50,0000 0000 0000 0000 000000
2018-08-07 01:08:03,0.00,0.08,0.00,23.42,26.95,29.80,13.97,42.88,1023.47,2029.99,3468.00,3066.06,3520.00,600.15,599.32,10.55,0000 0000 0000 0000 000000
2018-08-07 01:13:05,0.00,0.08,0.00,23.39,26.95,29.86,14.03,43.01,1023.46,2029.99,3467.99,3066.04,3520.00,599.80,599.16,10.60,0000 0000 0000 0000 000000
2018-08-07 01:18:06,0.00,0.08,0.00,23.38,26.95,29.88,13.95,42.88,1023.46,2029.99,3467.99,3066.03,3520.00,599.96,599.15,10.65,0000 0000 0000 0000 000000
2018-08-07 01:23:07,0.00,0.08,0.00,23.40,26.95,29.87,13.90,42.83,1023.46,2029.99,3467.98,3066.02,3520.00,599.84,599.25,10.70,0000 0000 0000 0000 000000
2018-08-07 01:28:08,0.00,0.08,0.00,23.41,26.95,29.86,13.98,42.93,1023.47,2029.99,3467.82,3066.00,3519.97,600.16,599.30,10.75,0000 0000 0000 0000 000000
2018-08-07 01:33:10,0.00,0.08,0.00,23.42,26.95,29.84,13.94,42.88,1023.46,2029.99,3467.26,3066.00,3519.96,599.86,599.06,10.80,0000 0000 0000 0000 000000
2018-08-07 01:38:11,0.00,0.08,0.00,23.44,26.94,29.83,13.99,42.90,1023.45,2030.00,3467.08,3066.00,3519.86,600.02,599.19,10.85,0000 0000 0000 0000 000000
2018-08-07 01:43:12,0.00,0.08,0.00,23.45,26.93,29.81,13.99,42.94,1023.46,2030.00,3467.01,3065.99,3519.47,600.08,599.21,10.90,0000 0000 0000 0000 000000
2018-08-07 01:48:13,0.00,0.08,0.00,23.45,26.92,29.82,13.85,42.77,1023.47,2030.00,3467.00,3065.97,3519.18,600.02,599.27,10.95,0000 0000 0000 0000 000000
2018-08-07 01:53:15,0.00,0.08,0.00,23.45,26.92,29.80,13.91,43.00,1023.46,2030.00,3466.99,3065.97,3519.06,600.07,599.21,11.00,0000 0000 0000 0000 000000
2018-08-07 01:58:16,0.01,0.08,0.00,23.43,26.92,29.83,13.93,42.97,1023.45,2030.00,3466.91,3065.84,3519.02,599.87,599.05,11.05,0000 0000 0000 0000 000000
2018-08-07 02:03:17,0.01,0.08,0.00,23.45,26.92,29.78,13.96,42.87,1023.45,2030.00,3466.61,3065.58,3519.00,600.17,599.32,11.10,0000 0000 0000 0000 000000
2018-08-07 02:08:18,0.01,0.08,0.00,23.47,26.92,29.80,13.94,42.85,1023.45,2030.01,3466.30,3065.40,3519.00,599.86,599.05,11.15,0000 0000 0000 0000 000000
2018-08-07 02:13:20,0.01,0.08,0.00,23.49,26.92,29.77,13.90,42.80,1023.45,2030.01,3466.01,3065.07,3519.00,600.03,599.09,11.20,0000 0000 0000 0000 000000
2018-08-07 02:18:21,0.00,0.08,0.00,23.50,26.92,29.75,13.96,42.85,1023.45,2030.01,3465.99,3065.01,3518.93,600.17,599.24,11.25,0000 0000 0000 0000 000000
2018-08-07 02:23:22,0.03,0.08,0.00,23.50,26.92,29.76,13.95,43.00,1023.45,2030.00,3465.30,3064.92,3518.10,599.93,599.00,11.30,0000 0000 0000 0000 000000
2018-08-07 02:28:24,0.00,0.08,0.00,23.52,26.92,29.75,13.90,43.05,1023.45,2030.00,3465.00,3064.74,3517.99,600.06,598.95,11.36,0000 0000 0000 0000 000000
2018-08-07 02:33:25,0.02,0.08,0.00,23.52,26.93,29.73,13.97,42.95,1023.45,2030.00,3464.97,3064.12,3517.67,600.03,599.02,11.41,0000 0000 0000 0000 000000
2018-08-07 02:38:26,0.01,0.08,0.00,23.51,26.94,29.72,13.91,43.04,1023.45,2030.00,3464.42,3064.00,3517.08,600.17,599.18,11.46,0000 0000 0000 0000 000000
2018-08-07 02:43:28,0.00,0.08,0.00,23.52,26.95,29.75,13.89,42.78,1023.45,2030.00,3464.06,3064.00,3517.01,600.06,598.91,11.51,0000 0000 0000 0000 000000
2018-08-07 02:48:29,0.00,0.08,0.00,23.52,26.95,29.76,13.94,42.91,1023.45,2030.00,3464.02,3063.99,3517.00,600.13,599.16,11.56,0000 0000 0000 0000 000000
2018-08-07 02:53:30,0.00,0.08,0.00,23.53,26.95,29.79,13.96,43.02,1023.45,2030.00,3463.99,3063.97,3516.97,599.92,598.90,11.61,0000 0000 0000 0000 000000
2018-08-07 02:58:32,0.01,0.08,0.00,23.54,26.96,29.79,13.92,42.98,1023.45,2030.00,3463.88,3063.79,3516.86,600.16,599.11,11.66,0000 0000 0000 0000 000000
2018-08-07 03:03:33,0.03,0.09,0.00,23.57,26.97,29.75,13.92,42.91,1023.45,2030.00,3463.32,3063.32,3516.30,600.13,598.98,11.71,0000 0000 0000 0000 000000
2018-08-07 03:08:34,0.01,0.09,0.00,23.57,26.97,29.78,13.87,42.95,1023.45,2030.00,3463.02,3063.11,3516.06,599.66,598.55,11.76,0000 0000 0000 0000 000000
2018-08-07 03:13:35,0.00,0.09,0.00,23.58,26.97,29.75,13.95,42.99,1023.45,2030.00,3463.00,3063.04,3516.02,600.12,598.97,11.81,0000 0000 0000 0000 000000
2018-08-07 03:18:36,0.00,0.09,0.00,23.59,26.99,29.80,13.96,42.92,1023.45,2029.99,3463.00,3063.01,3516.00,600.32,599.08,11.86,0000 0000 0000 0000 000000
2018-08-07 03:23:38,0.00,0.09,0.00,23.61,27.00,29.81,13.97,42.88,1023.45,2029.99,3462.97,3063.00,3516.00,600.20,598.96,11.91,0000 0000 0000 0000 000000
2018-08-07 03:28:39,0.01,0.09,0.00,23.62,27.00,29.78,13.95,42.94,1023.45,2029.99,3462.50,3062.99,3515.96,600.07,598.85,11.96,0000 0000 0000 0000 000000
2018-08-07 03:33:40,0.02,0.09,0.00,23.62,27.01,29.77,13.93,42.94,1023.45,2029.99,3462.01,3062.85,3515.35,599.80,598.58,12.01,0000 0000 0000 0000 000000
2018-08-07 03:38:42,0.00,0.09,0.00,23.62,27.02,29.75,13.94,43.02,1023.45,2029.98,3462.00,3062.66,3515.06,600.03,598.80,12.06,0000 0000 0000 0000 000000
2018-08-07 03:43:43,0.01,0.09,0.00,23.65,27.02,29.73,13.85,42.89,1023.45,2029.97,3461.99,3062.15,3515.00,599.89,598.53,12.11,0000 0000 0000 0000 000000
2018-08-07 03:48:44,0.00,0.09,0.00,23.68,27.05,29.74,14.02,43.08,1023.45,2029.95,3461.70,3062.01,3514.98,600.08,598.67,12.16,0000 0000 0000 0000 000000
2018-08-07 03:53:45,0.00,0.09,0.00,23.72,27.05,29.78,13.83,43.16,1023.45,2029.92,3461.13,3062.00,3514.88,599.42,598.08,12.21,0000 0000 0000 0000 000000
2018-08-07 03:58:46,0.01,0.09,0.00,23.72,27.07,29.81,13.97,43.11,1023.45,2029.92,3461.01,3061.99,3514.47,600.22,598.81,12.26,0000 0000 0000 0000 000000
2018-08-07 04:03:48,0.00,0.09,0.00,23.72,27.07,29.84,13.93,43.07,1023.45,2029.87,3460.98,3061.98,3514.04,600.15,598.87,12.31,0000 0000 0000 0000 000000
2018-08-07 04:08:49,-0.00,0.09,0.00,23.73,27.09,29.85,13.89,43.22,1023.45,2029.87,3460.83,3061.86,3514.00,600.05,598.62,12.36,0000 0000 0000 0000 000000
2018-08-07 04:13:51,0.01,0.09,0.00,23.74,27.10,29.88,13.95,43.02,1023.45,2029.69,3460.12,3061.28,3513.99,600.20,598.71,12.41,0000 0000 0000 0000 000000
2018-08-07 04:18:52,-0.00,0.09,0.00,23.75,27.10,29.87,13.90,43.10,1023.45,2029.62,3460.03,3061.09,3513.94,599.99,598.42,12.46,0000 0000 0000 0000 000000
2018-08-07 04:23:53,-0.02,0.09,0.00,23.76,27.12,29.87,13.91,43.13,1023.45,2029.36,3459.99,3061.00,3513.47,600.01,598.42,12.51,0000 0000 0000 0000 000000
2018-08-07 04:28:55,-0.00,0.09,0.00,23.77,27.12,29.90,13.95,43.22,1023.45,2029.12,3459.90,3061.00,3513.03,600.20,598.80,12.56,0000 0000 0000 0000 000000
2018-08-07 04:33:56,-0.00,0.09,0.00,23.77,27.14,29.96,13.92,43.14,1023.45,2029.04,3459.58,3060.99,3513.00,600.07,598.58,12.61,0000 0000 0000 0000 000000
2018-08-07 04:38:56,0.00,0.09,0.00,23.77,27.15,29.94,14.05,43.19,1023.44,2029.04,3459.09,3060.96,3513.00,600.49,598.96,12.66,0000 0000 0000 0000 000000
2018-08-07 04:43:57,0.01,0.09,0.00,23.75,27.15,29.99,13.89,43.12,1023.44,2029.03,3459.00,3060.80,3512.95,599.76,598.28,12.71,0000 0000 0000 0000 000000
2018-08-07 04:48:58,0.02,0.09,0.00,23.77,27.16,29.94,13.95,43.23,1023.41,2029.01,3458.98,3060.20,3512.44,599.98,598.38,12.76,0000 0000 0000 0000 000000
2018-08-07 04:54:00,0.00,0.09,0.00,23.80,27.17,29.95,13.92,43.20,1023.31,2029.00,3458.84,3060.04,3512.09,600.06,598.31,12.81,0000 0000 0000 0000 000000
2018-08-07 04:59:01,0.01,0.09,0.00,23.80,27.18,29.95,13.92,43.23,1023.34,2029.00,3458.20,3060.00,3512.01,600.19,598.55,12.86,0000 0000 0000 0000 000000
2018-08-07 05:04:02,0.00,0.09,0.00,23.81,27.20,29.94,13.91,43.21,1023.42,2029.00,3458.00,3060.00,3512.00,599.99,598.61,12.91,0000 0000 0000 0000 000000
2018-08-07 05:09:03,0.00,0.09,0.00,23.82,27.20,29.94,13.87,43.08,1023.38,2029.00,3458.00,3059.97,3511.90,599.75,598.19,12.96,0000 0000 0000 0000 000000
2018-08-07 05:14:04,0.03,0.09,0.00,23.83,27.22,29.96,13.91,43.16,1023.33,2029.00,3457.73,3059.64,3511.23,600.02,598.25,13.01,0000 0000 0000 0000 000000
2018-08-07 05:19:06,0.01,0.10,0.00,23.83,27.22,29.98,13.91,43.12,1023.32,2029.00,3457.15,3059.16,3511.01,599.88,598.21,13.06,0000 0000 0000 0000 000000
2018-08-07 05:24:07,0.00,0.10,0.00,23.84,27.23,29.99,13.97,43.18,1023.38,2029.00,3457.00,3059.01,3511.00,600.18,598.53,13.11,0000 0000 0000 0000 000000
2018-08-07 05:29:08,-0.00,0.10,0.00,23.86,27.25,30.00,13.93,43.11,1023.30,2028.96,3456.97,3059.00,3510.93,600.00,598.31,13.16,0000 0000 0000 0000 000000
2018-08-07 05:34:10,0.00,0.10,0.00,23.87,27.25,30.02,13.90,43.10,1023.27,2028.99,3456.95,3059.00,3510.75,599.92,598.10,13.21,0000 0000 0000 0000 000000
2018-08-07 05:39:11,0.01,0.10,0.00,23.89,27.27,30.05,13.91,43.10,1023.10,2028.98,3456.60,3058.97,3510.22,600.08,598.12,13.26,0000 0000 0000 0000 000000
2018-08-07 05:44:12,0.01,0.10,0.00,23.90,27.27,30.04,13.90,43.20,1023.00,2028.98,3456.10,3058.90,3510.02,599.83,597.79,13.31,0000 0000 0000 0000 000000
2018-08-07 05:49:14,0.01,0.10,0.00,23.91,27.29,30.04,13.93,43.02,1023.02,2028.97,3456.00,3058.45,3510.00,600.08,597.97,13.36,0000 0000 0000 0000 000000
2018-08-07 05:54:15,0.00,0.10,0.00,23.92,27.30,30.03,13.84,43.13,1022.97,2028.94,3455.98,3058.05,3509.97,599.72,597.61,13.41,0000 0000 0000 0000 000000
2018-08-07 05:59:17,0.00,0.10,0.00,23.93,27.31,30.08,13.83,43.03,1022.98,2028.85,3455.82,3058.02,3509.62,599.82,597.56,13.46,0000 0000 0000 0000 000000
2018-08-07 06:04:18,0.01,0.10,0.00,23.95,27.32,30.07,13.92,43.09,1022.97,2028.83,3455.22,3058.00,3509.14,599.81,597.63,13.51,0000 0000 0000 0000 000000
2018-08-07 06:09:19,-0.01,0.10,0.00,23.95,27.33,30.07,13.82,43.11,1022.97,2028.67,3455.01,3057.98,3509.00,599.82,597.67,13.57,0000 0000 0000 0000 000000
2018-08-07 06:14:21,-0.01,0.10,0.00,23.96,27.35,30.10,13.93,43.10,1022.97,2028.70,3455.00,3057.88,3508.99,600.25,598.10,13.62,0000 0000 0000 0000 000000
2018-08-07 06:19:22,-0.00,0.10,0.00,23.99,27.36,30.10,13.93,43.13,1022.98,2028.39,3454.83,3057.27,3508.89,599.99,597.83,13.67,0000 0000 0000 0000 000000
2018-08-07 06:24:23,0.01,0.10,0.00,24.04,27.37,30.12,13.91,43.08,1022.96,2028.23,3454.18,3057.06,3508.27,599.98,597.68,13.72,0000 0000 0000 0000 000000
2018-08-07 06:29:24,-0.01,0.10,0.00,24.04,27.39,30.14,13.92,43.02,1022.97,2028.13,3454.01,3057.00,3508.04,600.08,597.75,13.77,0000 0000 0000 0000 000000
2018-08-07 06:34:26,-0.00,0.10,0.00,24.04,27.40,30.15,13.94,43.10,1022.98,2028.03,3453.99,3056.99,3508.00,600.18,597.86,13.82,0000 0000 0000 0000 000000
2018-08-07 06:39:27,0.01,0.10,0.00,24.05,27.42,30.14,13.90,43.20,1022.97,2028.03,3453.48,3056.88,3507.90,599.76,597.40,13.87,0000 0000 0000 0000 000000
2018-08-07 06:44:29,0.03,0.10,0.00,24.08,27.43,30.17,13.93,43.13,1022.97,2028.01,3453.04,3056.25,3507.16,600.00,597.60,13.92,0000 0000 0000 0000 000000
2018-08-07 06:49:30,0.00,0.10,0.00,24.12,27.45,30.19,13.94,43.06,1022.97,2028.01,3453.00,3056.03,3507.01,600.49,598.02,13.97,0000 0000 0000 0000 000000
2018-08-07 06:54:32,0.00,0.10,0.00,24.10,27.47,30.23,13.87,43.08,1022.99,2028.01,3452.93,3056.00,3507.00,599.68,597.27,14.02,0000 0000 0000 0000 000000
2018-08-07 06:59:33,0.01,0.10,0.00,24.08,27.47,30.25,13.93,43.09,1022.98,2028.00,3452.24,3055.99,3506.82,600.30,597.82,14.07,0000 0000 0000 0000 000000
2018-08-07 07:04:34,0.01,0.10,0.00,24.10,27.50,30.26,13.93,43.18,1022.97,2028.00,3452.01,3055.95,3506.17,600.13,597.63,14.12,0000 0000 0000 0000 000000
2018-08-07 07:09:35,0.01,0.10,0.00,24.11,27.50,30.32,13.86,43.24,1022.97,2028.00,3452.00,3055.57,3506.01,599.72,597.25,14.17,0000 0000 0000 0000 000000
2018-08-07 07:14:36,0.02,0.10,0.00,24.15,27.52,30.30,13.89,43.15,1022.97,2028.00,3451.56,3055.05,3505.97,599.84,597.31,14.22,0000 0000 0000 0000 000000
2018-08-07 07:19:37,0.01,0.11,0.00,24.16,27.52,30.31,13.82,43.17,1022.96,2028.00,3451.03,3055.00,3505.62,599.86,597.13,14.27,0000 0000 0000 0000 000000
2018-08-07 07:24:39,0.00,0.11,0.00,24.20,27.54,30.31,13.93,43.26,1022.97,2027.99,3450.97,3054.94,3505.05,600.14,597.49,14.32,0000 0000 0000 0000 000000
2018-08-07 07:29:40,0.01,0.11,0.00,24.23,27.55,30.31,13.92,43.28,1022.96,2027.98,3450.73,3054.47,3504.99,600.02,597.28,14.37,0000 0000 0000 0000 000000
2018-08-07 07:34:41,0.01,0.11,0.00,24.28,27.56,30.32,13.95,43.16,1022.96,2027.97,3450.11,3054.07,3504.94,600.26,597.38,14.42,0000 0000 0000 0000 000000
2018-08-07 07:39:42,0.01,0.11,0.00,24.31,27.57,30.32,13.83,43.24,1022.96,2027.95,3450.01,3054.01,3504.52,599.78,596.86,14.47,0000 0000 0000 0000 000000
2018-08-07 07:44:43,0.00,0.11,0.00,24.33,27.59,30.32,13.89,43.25,1022.96,2027.94,3449.98,3054.00,3504.02,600.22,597.34,14.52,0000 0000 0000 0000 000000
2018-08-07 07:49:44,-0.01,0.11,0.00,24.36,27.60,30.30,13.85,43.27,1022.96,2027.71,3449.55,3053.95,3504.00,599.87,596.83,14.57,0000 0000 0000 0000 000000
2018-08-07 07:54:46,-0.01,0.11,0.00,24.38,27.62,30.29,13.92,43.27,1022.96,2027.56,3449.23,3053.80,3503.97,600.27,597.25,14.62,0000 0000 0000 0000 000000
2018-08-07 07:59:47,0.02,0.11,0.00,24.40,27.63,30.31,13.86,43.13,1022.96,2027.37,3449.01,3053.16,3503.45,600.12,597.13,14.67,0000 0000 0000 0000 000000
2018-08-07 08:04:49,-0.01,0.11,0.00,24.42,27.65,30.32,13.84,43.17,1022.96,2027.18,3448.99,3053.02,3503.05,600.03,596.85,14.72,0000 0000 0000 0000 000000
2018-08-07 08:09:50,-0.00,0.11,0.00,24.44,27.66,30.35,13.86,43.13,1022.96,2027.04,3448.54,3053.00,3502.99,600.02,596.90,14.77,0000 0000 0000 0000 000000
2018-08-07 08:14:51,0.03,0.11,0.00,24.46,27.68,30.35,13.86,43.08,1022.96,2027.02,3448.07,3052.66,3502.60,600.12,596.79,14.82,0000 0000 0000 0000 000000
2018-08-07 08:19:52,0.06,0.11,0.00,24.50,27.70,30.40,13.84,43.12,1022.96,2027.01,3447.07,3051.19,3501.08,600.05,596.82,14.87,0000 0000 0000 0000 000000
2018-08-07 08:24:54,0.00,0.11,0.00,24.54,27.72,30.40,13.85,43.02,1022.96,2027.00,3446.93,3051.01,3500.92,600.05,596.66,14.92,0000 0000 0000 0000 000000
2018-08-07 08:29:55,0.06,0.11,0.00,24.55,27.74,30.44,13.84,43.06,1022.97,2027.00,3445.87,3050.51,3499.89,599.80,596.50,14.97,0000 0000 0000 0000 000000
2018-08-07 08:34:56,0.13,0.12,0.00,24.57,27.76,30.47,13.89,43.00,1022.96,2027.00,3443.16,3048.12,3497.13,600.31,596.96,15.02,0000 0000 0000 0000 000000
2018-08-07 08:39:57,0.00,0.12,0.00,24.58,27.78,30.50,13.90,43.04,1022.96,2027.00,3443.00,3048.00,3497.00,599.99,596.57,15.07,0000 0000 0000 0000 000000
2018-08-07 08:44:59,0.00,0.12,0.00,24.59,27.80,30.52,13.88,43.02,1022.97,2026.99,3442.96,3048.00,3496.89,600.05,596.56,15.12,0000 0000 0000 0000 000000
2018-08-07 08:50:00,0.03,0.12,0.00,24.60,27.82,30.52,13.80,43.06,1022.98,2026.96,3442.37,3047.71,3496.26,600.04,596.58,15.17,0000 0000 0000 0000 000000
2018-08-07 08:55:01,0.00,0.13,0.00,24.62,27.84,30.56,13.87,43.03,1022.97,2026.97,3442.02,3047.32,3496.01,600.08,596.47,15.22,0000 0000 0000 0000 000000
2018-08-07 09:00:02,0.00,0.13,0.00,24.62,27.85,30.55,13.85,42.92,1022.97,2026.92,3442.00,3047.04,3496.00,600.13,596.47,15.27,0000 0000 0000 0000 000000
2018-08-07 09:05:04,-0.02,0.12,0.00,24.62,27.87,30.59,13.86,42.97,1022.97,2026.60,3441.75,3047.00,3495.74,600.24,596.67,15.32,0000 0000 0000 0000 000000
2018-08-07 09:10:05,-0.02,0.12,0.00,24.65,27.89,30.62,13.84,42.98,1022.97,2026.27,3441.24,3046.98,3495.16,600.17,596.62,15.37,0000 0000 0000 0000 000000
2018-08-07 09:15:06,-0.00,0.12,0.00,24.65,27.91,30.63,13.86,42.84,1022.98,2026.18,3441.02,3046.91,3495.01,600.20,596.65,15.42,0000 0000 0000 0000 000000
2018-08-07 09:20:07,0.01,0.12,0.00,24.65,27.92,30.65,13.84,43.00,1022.98,2026.15,3440.99,3046.46,3495.00,600.08,596.62,15.47,0000 0000 0000 0000 000000
2018-08-07 09:25:08,0.00,0.12,0.00,24.67,27.94,30.66,13.89,43.10,1022.97,2026.07,3440.90,3046.07,3494.83,600.34,596.76,15.52,0000 0000 0000 0000 000000
2018-08-07 09:30:10,0.01,0.13,0.00,24.69,27.96,30.66,13.86,43.03,1022.97,2026.01,3440.27,3046.01,3494.17,600.04,596.39,15.57,0000 0000 0000 0000 000000
2018-08-07 09:35:11,0.00,0.13,0.00,24.70,27.97,30.67,13.84,43.01,1022.98,2026.01,3440.02,3046.00,3494.01,600.05,596.47,15.62,0000 0000 0000 0000 000000
2018-08-07 09:40:12,0.00,0.13,0.00,24.70,28.00,30.71,13.85,43.02,1022.97,2026.00,3440.00,3045.97,3493.98,599.89,596.26,15.67,0000 0000 0000 0000 000000
2018-08-07 09:45:14,0.01,0.13,0.00,24.72,28.01,30.72,13.80,42.91,1022.96,2026.00,3439.92,3045.79,3493.67,599.67,595.98,15.72,0000 0000 0000 0000 000000
2018-08-07 09:50:15,0.03,0.13,0.00,24.75,28.02,30.72,13.89,43.03,1022.96,2026.00,3439.35,3045.31,3493.09,600.14,596.41,15.77,0000 0000 0000 0000 000000
2018-08-07 09:55:17,0.00,0.13,0.00,24.77,28.05,30.69,13.88,43.02,1022.96,2026.00,3439.01,3045.04,3493.00,600.13,596.29,15.82,0000 0000 0000 0000 000000
2018-08-07 10:00:18,0.00,0.13,0.00,24.81,28.06,30.77,13.88,43.00,1022.96,2026.00,3438.95,3045.00,3492.93,599.87,596.04,15.88,0000 0000 0000 0000 000000
2018-08-07 10:05:19,0.02,0.13,0.00,24.86,28.08,30.76,13.85,43.05,1022.96,2025.99,3438.46,3044.97,3492.29,599.98,595.99,15.93,0000 0000 0000 0000 000000
2018-08-07 10:10:20,0.02,0.13,0.00,24.90,28.11,30.78,13.88,42.96,1022.96,2025.96,3438.01,3044.47,3492.00,600.10,596.03,15.98,0000 0000 0000 0000 000000
2018-08-07 10:15:21,0.01,0.13,0.00,24.97,28.14,30.82,13.86,43.06,1022.96,2025.94,3437.82,3043.92,3491.73,599.91,595.77,16.03,0000 0000 0000 0000 000000
2018-08-07 10:20:23,0.08,0.14,0.00,25.03,28.16,30.78,13.82,42.97,1022.96,2025.64,3436.13,3042.24,3489.38,600.04,595.70,16.08,0000 0000 0000 0000 000000
2018-08-07 10:25:24,-0.04,0.13,0.00,25.08,28.20,30.78,13.79,42.93,1022.96,2025.17,3435.87,3042.00,3489.00,599.92,595.56,16.13,0000 0000 0000 0000 000000
2018-08-07 10:30:25,0.02,0.13,0.00,25.14,28.23,30.77,13.81,42.92,1022.96,2025.03,3435.14,3041.87,3488.53,599.97,595.42,16.18,0000 0000 0000 0000 000000
2018-08-07 10:35:26,0.02,0.14,0.00,25.20,28.27,30.85,13.85,43.08,1022.96,2025.00,3434.98,3041.16,3488.01,600.08,595.32,16.23,0000 0000 0000 0000 000000
2018-08-07 10:40:28,0.02,0.14,0.00,25.27,28.32,30.92,13.77,42.97,1022.97,2025.00,3434.50,3041.00,3487.71,599.87,595.11,16.28,0000 0000 0000 0000 000000
2018-08-07 10:45:29,0.05,0.14,0.00,25.34,28.36,31.04,13.74,42.86,1022.98,2024.98,3433.65,3040.54,3486.64,599.60,594.66,16.33,0000 0000 0000 0000 000000
2018-08-07 10:50:30,0.03,0.14,0.00,25.41,28.41,31.15,13.82,42.84,1022.97,2024.86,3432.99,3039.30,3485.49,599.77,594.73,16.38,0000 0000 0000 0000 000000
2018-08-07 10:55:32,-0.04,0.14,0.00,25.49,28.46,31.22,13.81,42.92,1022.96,2024.34,3432.38,3039.00,3485.01,600.11,594.89,16.43,0000 0000 0000 0000 000000
2018-08-07 11:00:33,0.01,0.14,0.00,25.60,28.51,31.32,13.81,42.99,1022.96,2024.03,3432.00,3038.70,3484.49,599.93,594.51,16.48,0000 0000 0000 0000 000000
2018-08-07 11:05:35,0.03,0.14,0.00,25.74,28.56,31.42,13.77,42.91,1022.96,2024.00,3431.38,3038.04,3483.97,600.02,594.28,16.53,0000 0000 0000 0000 000000
2018-08-07 11:10:36,0.02,0.14,0.00,25.93,28.61,31.51,13.81,42.92,1022.96,2023.99,3431.00,3037.85,3483.23,599.95,593.85,16.58,0000 0000 0000 0000 000000
2018-08-07 11:15:37,0.01,0.14,0.00,26.08,28.66,31.57,13.78,42.87,1022.96,2023.74,3430.46,3037.05,3482.71,600.11,593.55,16.63,0000 0000 0000 0000 000000
2018-08-07 11:20:38,0.01,0.14,0.00,26.22,28.71,31.63,13.68,42.79,1022.97,2023.09,3429.33,3036.10,3481.32,599.56,592.98,16.68,0000 0000 0000 0000 000000
2018-08-07 11:25:39,0.00,0.14,0.00,26.34,28.75,31.71,13.72,42.71,1022.97,2023.01,3428.96,3035.94,3480.91,599.83,592.92,16.73,0000 0000 0000 0000 000000
2018-08-07 11:30:40,0.05,0.15,0.00,26.41,28.80,31.76,13.67,42.85,1022.96,2022.99,3428.13,3035.12,3480.07,599.40,592.48,16.78,0000 0000 0000 0000 000000
2018-08-07 11:35:42,0.01,0.15,0.00,26.45,28.84,31.73,13.76,42.72,1022.96,2022.92,3427.72,3034.86,3479.39,600.17,593.03,16.83,0000 0000 0000 0000 000000
2018-08-07 11:40:43,0.00,0.15,0.00,26.46,28.88,31.71,13.70,42.73,1022.96,2022.65,3427.02,3034.16,3478.93,599.82,592.59,16.88,0000 0000 0000 0000 000000
2018-08-07 11:45:44,0.03,0.15,0.00,26.48,28.91,31.75,13.76,42.79,1022.96,2022.06,3425.65,3033.11,3477.51,599.93,592.72,16.93,0000 0000 0000 0000 000000
2018-08-07 11:50:46,0.03,0.15,0.00,26.50,28.95,31.81,13.71,42.80,1022.96,2022.01,3424.99,3032.23,3476.53,600.00,592.80,16.98,0000 0000 0000 0000 000000
2018-08-07 11:55:47,0.01,0.15,0.00,26.47,28.98,31.89,13.69,42.80,1022.96,2022.00,3424.39,3032.00,3476.01,599.64,592.55,17.03,0000 0000 0000 0000 000000
2018-08-07 12:00:48,0.02,0.15,0.00,26.42,29.01,31.96,13.77,42.90,1022.97,2021.99,3423.88,3031.70,3475.48,599.86,592.83,17.08,0000 0000 0000 0000 000000
2018-08-07 12:05:50,0.02,0.15,0.00,26.37,29.03,31.95,13.78,42.88,1022.96,2021.98,3423.08,3031.03,3474.97,600.06,593.11,17.13,0000 0000 0000 0000 000000
2018-08-07 12:10:51,0.01,0.15,0.00,26.24,29.05,31.96,13.66,42.95,1022.96,2021.81,3422.61,3030.86,3474.19,599.61,592.87,17.18,0000 0000 0000 0000 000000
2018-08-07 12:15:52,0.02,0.16,0.00,26.11,29.07,31.92,13.80,42.98,1022.96,2021.53,3421.73,3030.14,3473.47,599.84,593.44,17.23,0000 0000 0000 0000 000000
2018-08-07 12:20:54,-0.01,0.16,0.00,26.00,29.10,31.92,13.81,42.98,1022.96,2021.27,3421.05,3029.87,3473.01,600.06,593.80,17.28,0000 0000 0000 0000 000000
2018-08-07 12:25:55,0.02,0.16,0.00,25.90,29.10,31.94,13.84,43.07,1022.94,2021.06,3420.87,3029.18,3472.61,599.93,593.86,17.33,0000 0000 0000 0000 000000
2018-08-07 12:30:56,0.01,0.16,0.00,25.82,29.12,31.97,13.78,43.01,1022.92,2021.01,3420.18,3029.01,3472.05,599.75,593.86,17.38,0000 0000 0000 0000 000000
2018-08-07 12:35:57,0.00,0.16,0.00,25.76,29.12,31.97,13.77,43.11,1022.89,2021.01,3419.98,3028.99,3471.90,599.59,593.81,17.43,0000 0000 0000 0000 000000
2018-08-07 12:40:58,0.03,0.16,0.00,25.73,29.14,32.00,13.84,42.94,1022.95,2021.00,3419.53,3028.63,3471.26,600.27,594.56,17.48,0000 0000 0000 0000 000000
2018-08-07 12:45:59,0.03,0.16,0.00,25.69,29.15,31.99,13.85,43.02,1022.96,2021.00,3418.78,3028.04,3470.74,600.19,594.54,17.53,0000 0000 0000 0000 000000
2018-08-07 12:51:01,0.03,0.16,0.00,25.66,29.15,31.99,13.82,43.18,1022.95,2021.00,3418.03,3027.70,3470.03,599.94,594.27,17.58,0000 0000 0000 0000 000000
2018-08-07 12:56:02,0.02,0.16,0.00,25.64,29.15,31.96,13.85,43.10,1022.93,2021.00,3417.75,3027.06,3469.76,599.80,594.23,17.63,0000 0000 0000 0000 000000